User: anonymous   Login
Location: Unspecified
(0.0000°N, 0.0000°E)
Time: 00:47:21
(UTC+00:00)
Language:

COSMOS 2507 - Orbit

View from above orbital plane
View from above orbital plane
View from above satellite
View from above satellite

Ground track
Ground track

The orbit data is extracted from the following two-line orbital elements,

1 40920U 15050A   18232.11169649  .00000007  00000-0 -20776-4 0  9993
2 40920  82.4890  58.9209 0009728  95.4359 264.7834 12.42888485131832
Epoch (UTC): 20 August 2018 02:40:50
Eccentricity: 0.0009728
inclination: 82.4890°
perigee height: 1487 km
apogee height: 1502 km
right ascension of ascending node: 58.9209°
argument of perigee: 95.4359°
revolutions per day: 12.42888485
mean anomaly at epoch: 264.7834°
orbit number at epoch: 13183

The dashed part of the orbit path shows where the satellite is in the earth's shadow,  

DLR